Year,Month,Day,Hour,Minute,Value (Times are PST for temperature in C)
2009,07,22,00,00,16.60
2009,07,22,00,01,16.60
2009,07,22,00,02,16.60
2009,07,22,00,03,16.70
2009,07,22,00,04,16.70
2009,07,22,00,05,16.70
2009,07,22,00,06,16.70
2009,07,22,00,07,16.70
2009,07,22,00,08,16.70
2009,07,22,00,09,16.80
2009,07,22,00,10,16.90
2009,07,22,00,11,16.90
2009,07,22,00,12,17.00
2009,07,22,00,13,17.00
2009,07,22,00,14,17.00
2009,07,22,00,15,17.00
2009,07,22,00,16,17.00
2009,07,22,00,17,17.00
2009,07,22,00,18,17.00
2009,07,22,00,19,17.00
2009,07,22,00,20,17.00
2009,07,22,00,21,16.90
2009,07,22,00,22,16.90
2009,07,22,00,23,16.90
2009,07,22,00,24,16.90
2009,07,22,00,25,16.80
2009,07,22,00,26,16.80
2009,07,22,00,27,16.80
2009,07,22,00,28,16.70
2009,07,22,00,29,16.70
2009,07,22,00,30,16.70
2009,07,22,00,31,16.60
2009,07,22,00,32,16.60
2009,07,22,00,33,16.60
2009,07,22,00,34,16.50
2009,07,22,00,35,16.40
2009,07,22,00,36,16.40
2009,07,22,00,37,16.40
2009,07,22,00,38,16.40
2009,07,22,00,39,16.30
2009,07,22,00,40,16.30
2009,07,22,00,41,16.30
2009,07,22,00,42,16.20
2009,07,22,00,43,16.20
2009,07,22,00,44,16.10
2009,07,22,00,45,16.10
2009,07,22,00,46,16.10
2009,07,22,00,47,16.00
2009,07,22,00,48,15.90
2009,07,22,00,49,15.80
2009,07,22,00,50,15.80
2009,07,22,00,51,15.80
2009,07,22,00,52,15.80
2009,07,22,00,53,15.80
2009,07,22,00,54,15.80
2009,07,22,00,55,15.80
2009,07,22,00,56,15.80
2009,07,22,00,57,15.80
2009,07,22,00,58,15.70
2009,07,22,00,59,15.70
2009,07,22,01,00,15.70
2009,07,22,01,01,15.70
2009,07,22,01,02,15.70
2009,07,22,01,03,15.80
2009,07,22,01,04,15.80
2009,07,22,01,05,15.80
2009,07,22,01,06,15.80
2009,07,22,01,07,15.80
2009,07,22,01,08,15.80
2009,07,22,01,09,15.80
2009,07,22,01,10,15.70
2009,07,22,01,11,15.70
2009,07,22,01,12,15.70
2009,07,22,01,13,15.70
2009,07,22,01,14,15.70
2009,07,22,01,15,15.70
2009,07,22,01,16,15.70
2009,07,22,01,17,15.70
2009,07,22,01,18,15.70
2009,07,22,01,19,15.70
2009,07,22,01,20,15.80
2009,07,22,01,21,15.70
2009,07,22,01,22,15.70
2009,07,22,01,23,15.70
2009,07,22,01,24,15.70
2009,07,22,01,25,15.70
2009,07,22,01,26,15.70
2009,07,22,01,27,15.60
2009,07,22,01,28,15.60
2009,07,22,01,29,15.50
2009,07,22,01,30,15.40
2009,07,22,01,31,15.30
2009,07,22,01,32,15.30
2009,07,22,01,33,15.20
2009,07,22,01,34,15.10
2009,07,22,01,35,15.10
2009,07,22,01,36,15.00
2009,07,22,01,37,14.90
2009,07,22,01,38,14.90
2009,07,22,01,39,14.80
2009,07,22,01,40,14.80
2009,07,22,01,41,14.70
2009,07,22,01,42,14.70
2009,07,22,01,43,14.70
2009,07,22,01,44,14.60
2009,07,22,01,45,14.60
2009,07,22,01,46,14.60
2009,07,22,01,47,14.60
2009,07,22,01,48,14.50
2009,07,22,01,49,14.50
2009,07,22,01,50,14.50
2009,07,22,01,51,14.40
2009,07,22,01,52,14.40
2009,07,22,01,53,14.50
2009,07,22,01,54,14.50
2009,07,22,01,55,14.50
2009,07,22,01,56,14.50
2009,07,22,01,57,14.50
2009,07,22,01,58,14.50
2009,07,22,01,59,14.50
2009,07,22,02,00,14.50
2009,07,22,02,01,14.50
2009,07,22,02,02,14.50
2009,07,22,02,03,14.50
2009,07,22,02,04,14.50
2009,07,22,02,05,14.50
2009,07,22,02,06,14.50
2009,07,22,02,07,14.50
2009,07,22,02,08,14.50
2009,07,22,02,09,14.50
2009,07,22,02,10,14.50
2009,07,22,02,11,14.50
2009,07,22,02,12,14.50
2009,07,22,02,13,14.50
2009,07,22,02,14,14.50
2009,07,22,02,15,14.50
2009,07,22,02,16,14.50
2009,07,22,02,17,14.50
2009,07,22,02,18,14.50
2009,07,22,02,19,14.50
2009,07,22,02,20,14.50
2009,07,22,02,21,14.50
2009,07,22,02,22,14.50
2009,07,22,02,23,14.60
2009,07,22,02,24,14.60
2009,07,22,02,25,14.60
2009,07,22,02,26,14.60
2009,07,22,02,27,14.70
2009,07,22,02,28,14.70
2009,07,22,02,29,14.70
2009,07,22,02,30,14.70
2009,07,22,02,31,14.60
2009,07,22,02,32,14.60
2009,07,22,02,33,14.60
2009,07,22,02,34,14.60
2009,07,22,02,35,14.60
2009,07,22,02,36,14.50
2009,07,22,02,37,14.50
2009,07,22,02,38,14.50
2009,07,22,02,39,14.50
2009,07,22,02,40,14.40
2009,07,22,02,41,14.40
2009,07,22,02,42,14.40
2009,07,22,02,43,14.30
2009,07,22,02,44,14.30
2009,07,22,02,45,14.30
2009,07,22,02,46,14.30
2009,07,22,02,47,14.20
2009,07,22,02,48,14.20
2009,07,22,02,49,14.20
2009,07,22,02,50,14.20
2009,07,22,02,51,14.20
2009,07,22,02,52,14.20
2009,07,22,02,53,14.20
2009,07,22,02,54,14.20
2009,07,22,02,55,14.20
2009,07,22,02,56,14.20
2009,07,22,02,57,14.20
2009,07,22,02,58,14.20
2009,07,22,02,59,14.20
2009,07,22,03,00,14.20
2009,07,22,03,01,14.20
2009,07,22,03,02,14.20
2009,07,22,03,03,14.20
2009,07,22,03,04,14.20
2009,07,22,03,05,14.20
2009,07,22,03,06,14.20
2009,07,22,03,07,14.20
2009,07,22,03,08,14.20
2009,07,22,03,09,14.20
2009,07,22,03,10,14.20
2009,07,22,03,11,14.20
2009,07,22,03,12,14.20
2009,07,22,03,13,14.20
2009,07,22,03,14,14.20
2009,07,22,03,15,14.10
2009,07,22,03,16,14.10
2009,07,22,03,17,14.00
2009,07,22,03,18,13.90
2009,07,22,03,19,13.90
2009,07,22,03,20,13.80
2009,07,22,03,21,13.70
2009,07,22,03,22,13.60
2009,07,22,03,23,13.60
2009,07,22,03,24,13.50
2009,07,22,03,25,13.50
2009,07,22,03,26,13.40
2009,07,22,03,27,13.30
2009,07,22,03,28,13.30
2009,07,22,03,29,13.30
2009,07,22,03,30,13.20
2009,07,22,03,31,13.20
2009,07,22,03,32,13.20
2009,07,22,03,33,13.10
2009,07,22,03,34,13.10
2009,07,22,03,35,13.10
2009,07,22,03,36,13.00
2009,07,22,03,37,13.00
2009,07,22,03,38,13.00
2009,07,22,03,39,13.00
2009,07,22,03,40,12.90
2009,07,22,03,41,12.90
2009,07,22,03,42,12.90
2009,07,22,03,43,12.90
2009,07,22,03,44,12.90
2009,07,22,03,45,12.90
2009,07,22,03,46,13.00
2009,07,22,03,47,13.00
2009,07,22,03,48,13.00
2009,07,22,03,49,13.00
2009,07,22,03,50,13.00
2009,07,22,03,51,13.00
2009,07,22,03,52,13.10
2009,07,22,03,53,13.00
2009,07,22,03,54,13.00
2009,07,22,03,55,13.00
2009,07,22,03,56,13.00
2009,07,22,03,57,13.00
2009,07,22,03,58,13.00
2009,07,22,03,59,13.00
2009,07,22,04,00,13.00
2009,07,22,04,01,13.00
2009,07,22,04,02,13.00
2009,07,22,04,03,13.00
2009,07,22,04,04,12.90
2009,07,22,04,05,12.90
2009,07,22,04,06,12.90
2009,07,22,04,07,12.80
2009,07,22,04,08,12.80
2009,07,22,04,09,12.80
2009,07,22,04,10,12.80
2009,07,22,04,11,12.80
2009,07,22,04,12,12.80
2009,07,22,04,13,12.80
2009,07,22,04,14,12.80
2009,07,22,04,15,12.80
2009,07,22,04,16,12.80
2009,07,22,04,17,12.90
2009,07,22,04,18,12.90
2009,07,22,04,19,12.90
2009,07,22,04,20,13.00
2009,07,22,04,21,13.00
2009,07,22,04,22,13.00
2009,07,22,04,23,13.10
2009,07,22,04,24,13.10
2009,07,22,04,25,13.10
2009,07,22,04,26,13.10
2009,07,22,04,27,13.10
2009,07,22,04,28,13.10
2009,07,22,04,29,13.10
2009,07,22,04,30,13.10
2009,07,22,04,31,13.10
2009,07,22,04,32,13.10
2009,07,22,04,33,13.10
2009,07,22,04,34,13.10
2009,07,22,04,35,13.10
2009,07,22,04,36,13.10
2009,07,22,04,37,13.10
2009,07,22,04,38,13.10
2009,07,22,04,39,13.10
2009,07,22,04,40,13.10
2009,07,22,04,41,13.10
2009,07,22,04,42,13.10
2009,07,22,04,43,13.10
2009,07,22,04,44,13.10
2009,07,22,04,45,13.10
2009,07,22,04,46,13.10
2009,07,22,04,47,13.10
2009,07,22,04,48,13.10
2009,07,22,04,49,13.10
2009,07,22,04,50,13.10
2009,07,22,04,51,13.10
2009,07,22,04,52,13.10
2009,07,22,04,53,13.10
2009,07,22,04,54,13.10
2009,07,22,04,55,13.10
2009,07,22,04,56,13.10
2009,07,22,04,57,13.10
2009,07,22,04,58,13.10
2009,07,22,04,59,13.10
2009,07,22,05,00,13.10
2009,07,22,05,01,13.10
2009,07,22,05,02,13.10
2009,07,22,05,03,13.10
2009,07,22,05,04,13.10
2009,07,22,05,05,13.10
2009,07,22,05,06,13.10
2009,07,22,05,07,13.10
2009,07,22,05,08,13.10
2009,07,22,05,09,13.10
2009,07,22,05,10,13.10
2009,07,22,05,11,13.10
2009,07,22,05,12,13.10
2009,07,22,05,13,13.10
2009,07,22,05,14,13.10
2009,07,22,05,15,13.10
2009,07,22,05,16,13.10
2009,07,22,05,17,13.10
2009,07,22,05,18,13.10
2009,07,22,05,19,13.10
2009,07,22,05,20,13.10
2009,07,22,05,21,13.10
2009,07,22,05,22,13.10
2009,07,22,05,23,13.10
2009,07,22,05,24,13.10
2009,07,22,05,25,13.10
2009,07,22,05,26,13.10
2009,07,22,05,27,13.10
2009,07,22,05,28,13.10
2009,07,22,05,29,13.10
2009,07,22,05,30,13.10
2009,07,22,05,31,13.10
2009,07,22,05,32,13.10
2009,07,22,05,33,13.20
2009,07,22,05,34,13.20
2009,07,22,05,35,13.20
2009,07,22,05,36,13.20
2009,07,22,05,37,13.20
2009,07,22,05,38,13.20
2009,07,22,05,39,13.20
2009,07,22,05,40,13.20
2009,07,22,05,41,13.20
2009,07,22,05,42,13.20
2009,07,22,05,43,13.10
2009,07,22,05,44,13.10
2009,07,22,05,45,13.10
2009,07,22,05,46,13.10
2009,07,22,05,47,13.10
2009,07,22,05,48,13.10
2009,07,22,05,49,13.10
2009,07,22,05,50,13.10
2009,07,22,05,51,13.10
2009,07,22,05,52,13.10
2009,07,22,05,53,13.00
2009,07,22,05,54,13.00
2009,07,22,05,55,13.00
2009,07,22,05,56,13.00
2009,07,22,05,57,13.00
2009,07,22,05,58,13.00
2009,07,22,05,59,13.00
2009,07,22,06,00,12.90
2009,07,22,06,01,12.90
2009,07,22,06,02,12.90
2009,07,22,06,03,12.90
2009,07,22,06,04,12.90
2009,07,22,06,05,12.90
2009,07,22,06,06,12.90
2009,07,22,06,07,12.90
2009,07,22,06,08,12.90
2009,07,22,06,09,12.90
2009,07,22,06,10,12.90
2009,07,22,06,11,12.90
2009,07,22,06,12,12.90
2009,07,22,06,13,13.00
2009,07,22,06,14,13.00
2009,07,22,06,15,13.00
2009,07,22,06,16,13.10
2009,07,22,06,17,13.20
2009,07,22,06,18,13.20
2009,07,22,06,19,13.30
2009,07,22,06,20,13.30
2009,07,22,06,21,13.40
2009,07,22,06,22,13.50
2009,07,22,06,23,13.50
2009,07,22,06,24,13.60
2009,07,22,06,25,13.60
2009,07,22,06,26,13.70
2009,07,22,06,27,13.70
2009,07,22,06,28,13.70
2009,07,22,06,29,13.80
2009,07,22,06,30,13.80
2009,07,22,06,31,13.90
2009,07,22,06,32,13.90
2009,07,22,06,33,13.90
2009,07,22,06,34,14.00
2009,07,22,06,35,14.00
2009,07,22,06,36,14.00
2009,07,22,06,37,14.10
2009,07,22,06,38,14.20
2009,07,22,06,39,14.20
2009,07,22,06,40,14.20
2009,07,22,06,41,14.20
2009,07,22,06,42,14.20
2009,07,22,06,43,14.30
2009,07,22,06,44,14.30
2009,07,22,06,45,14.30
2009,07,22,06,46,14.30
2009,07,22,06,47,14.40
2009,07,22,06,48,14.40
2009,07,22,06,49,14.50
2009,07,22,06,50,14.50
2009,07,22,06,51,14.50
2009,07,22,06,52,14.60
2009,07,22,06,53,14.70
2009,07,22,06,54,14.70
2009,07,22,06,55,14.80
2009,07,22,06,56,14.80
2009,07,22,06,57,14.80
2009,07,22,06,58,14.80
2009,07,22,06,59,14.90
2009,07,22,07,00,14.90
2009,07,22,07,01,14.90
2009,07,22,07,02,14.90
2009,07,22,07,03,14.90
2009,07,22,07,04,14.90
2009,07,22,07,05,14.90
2009,07,22,07,06,14.90
2009,07,22,07,07,14.90
2009,07,22,07,08,14.90
2009,07,22,07,09,14.90
2009,07,22,07,10,14.90
2009,07,22,07,11,14.90
2009,07,22,07,12,14.80
2009,07,22,07,13,14.80
2009,07,22,07,14,14.90
2009,07,22,07,15,14.90
2009,07,22,07,16,14.90
2009,07,22,07,17,15.00
2009,07,22,07,18,15.00
2009,07,22,07,19,15.10
2009,07,22,07,20,15.10
2009,07,22,07,21,15.20
2009,07,22,07,22,15.30
2009,07,22,07,23,15.40
2009,07,22,07,24,15.50
2009,07,22,07,25,15.60
2009,07,22,07,26,15.80
2009,07,22,07,27,15.80
2009,07,22,07,28,15.90
2009,07,22,07,29,16.00
2009,07,22,07,30,16.10
2009,07,22,07,31,16.20
2009,07,22,07,32,16.30
2009,07,22,07,33,16.40
2009,07,22,07,34,16.30
2009,07,22,07,35,16.30
2009,07,22,07,36,16.20
2009,07,22,07,37,16.20
2009,07,22,07,38,16.10
2009,07,22,07,39,16.10
2009,07,22,07,40,16.10
2009,07,22,07,41,16.10
2009,07,22,07,42,16.10
2009,07,22,07,43,16.10
2009,07,22,07,44,16.10
2009,07,22,07,45,15.90
2009,07,22,07,46,15.90
2009,07,22,07,47,16.00
2009,07,22,07,48,16.10
2009,07,22,07,49,16.10
2009,07,22,07,50,16.10
2009,07,22,07,51,16.10
2009,07,22,07,52,16.10
2009,07,22,07,53,16.10
2009,07,22,07,54,16.10
2009,07,22,07,55,16.10
2009,07,22,07,56,16.10
2009,07,22,07,57,16.10
2009,07,22,07,58,16.10
2009,07,22,07,59,16.10
2009,07,22,08,00,16.10
2009,07,22,08,01,16.10
2009,07,22,08,02,16.10
2009,07,22,08,03,16.20
2009,07,22,08,04,16.20
2009,07,22,08,05,16.30
2009,07,22,08,06,16.30
2009,07,22,08,07,16.30
2009,07,22,08,08,16.40
2009,07,22,08,09,16.40
2009,07,22,08,10,16.40
2009,07,22,08,11,16.50
2009,07,22,08,12,16.60
2009,07,22,08,13,16.60
2009,07,22,08,14,16.80
2009,07,22,08,15,17.00
2009,07,22,08,16,17.20
2009,07,22,08,17,17.30
2009,07,22,08,18,17.40
2009,07,22,08,19,17.60
2009,07,22,08,20,17.80
2009,07,22,08,21,17.90
2009,07,22,08,22,17.90
2009,07,22,08,23,17.80
2009,07,22,08,24,17.50
2009,07,22,08,25,17.20
2009,07,22,08,26,16.90
2009,07,22,08,27,16.70
2009,07,22,08,28,16.50
2009,07,22,08,29,16.30
2009,07,22,08,30,16.20
2009,07,22,08,31,16.20
2009,07,22,08,32,16.20
2009,07,22,08,33,16.20
2009,07,22,08,34,16.20
2009,07,22,08,35,16.30
2009,07,22,08,36,16.30
2009,07,22,08,37,16.40
2009,07,22,08,38,16.40
2009,07,22,08,39,16.40
2009,07,22,08,40,16.40
2009,07,22,08,41,16.60
2009,07,22,08,42,16.60
2009,07,22,08,43,16.60
2009,07,22,08,44,16.60
2009,07,22,08,45,16.60
2009,07,22,08,46,16.60
2009,07,22,08,47,16.50
2009,07,22,08,48,16.40
2009,07,22,08,49,16.40
2009,07,22,08,50,16.40
2009,07,22,08,51,16.40
2009,07,22,08,52,16.40
2009,07,22,08,53,16.40
2009,07,22,08,54,16.40
2009,07,22,08,55,16.50
2009,07,22,08,56,16.60
2009,07,22,08,57,16.70
2009,07,22,08,58,16.70
2009,07,22,08,59,16.80
2009,07,22,09,00,16.90
2009,07,22,09,01,17.00
2009,07,22,09,02,17.00
2009,07,22,09,03,17.00
2009,07,22,09,04,17.20
2009,07,22,09,05,17.30
2009,07,22,09,06,17.40
2009,07,22,09,07,17.50
2009,07,22,09,08,17.70
2009,07,22,09,09,17.80
2009,07,22,09,10,17.80
2009,07,22,09,11,17.90
2009,07,22,09,12,17.90
2009,07,22,09,13,17.90
2009,07,22,09,14,17.90
2009,07,22,09,15,17.90
2009,07,22,09,16,17.90
2009,07,22,09,17,17.90
2009,07,22,09,18,17.90
2009,07,22,09,19,17.90
2009,07,22,09,20,17.90
2009,07,22,09,21,18.10
2009,07,22,09,22,18.00
2009,07,22,09,23,17.90
2009,07,22,09,24,18.10
2009,07,22,09,25,18.10
2009,07,22,09,26,18.20
2009,07,22,09,27,18.20
2009,07,22,09,28,18.20
2009,07,22,09,29,18.20
2009,07,22,09,30,18.20
2009,07,22,09,31,18.20
2009,07,22,09,32,18.10
2009,07,22,09,33,17.90
2009,07,22,09,34,17.90
2009,07,22,09,35,17.80
2009,07,22,09,36,17.70
2009,07,22,09,37,17.70
2009,07,22,09,38,17.60
2009,07,22,09,39,17.60
2009,07,22,09,40,17.50
2009,07,22,09,41,17.30
2009,07,22,09,42,17.20
2009,07,22,09,43,17.10
2009,07,22,09,44,17.10
2009,07,22,09,45,17.20
2009,07,22,09,46,17.30
2009,07,22,09,47,17.30
2009,07,22,09,48,17.30
2009,07,22,09,49,17.20
2009,07,22,09,50,17.10
2009,07,22,09,51,17.00
2009,07,22,09,52,17.10
2009,07,22,09,53,17.20
2009,07,22,09,54,17.00
2009,07,22,09,55,17.00
2009,07,22,09,56,16.80
2009,07,22,09,57,16.60
2009,07,22,09,58,16.30
2009,07,22,09,59,16.20
2009,07,22,10,00,15.90
2009,07,22,10,01,15.70
2009,07,22,10,02,15.60
2009,07,22,10,03,15.50
2009,07,22,10,04,15.40
2009,07,22,10,05,15.30
2009,07,22,10,06,15.10
2009,07,22,10,07,15.00
2009,07,22,10,08,15.10
2009,07,22,10,09,15.20
2009,07,22,10,10,15.40
2009,07,22,10,11,15.50
2009,07,22,10,12,15.50
2009,07,22,10,13,15.40
2009,07,22,10,14,15.40
2009,07,22,10,15,15.30
2009,07,22,10,16,15.30
2009,07,22,10,17,15.30
2009,07,22,10,18,15.30
2009,07,22,10,19,15.40
2009,07,22,10,20,15.50
2009,07,22,10,21,15.50
2009,07,22,10,22,15.50
2009,07,22,10,23,15.70
2009,07,22,10,24,15.70
2009,07,22,10,25,15.60
2009,07,22,10,26,15.60
2009,07,22,10,27,15.60
2009,07,22,10,28,15.70
2009,07,22,10,29,15.60
2009,07,22,10,30,15.50
2009,07,22,10,31,15.30
2009,07,22,10,32,15.30
2009,07,22,10,33,15.50
2009,07,22,10,34,15.60
2009,07,22,10,35,15.60
2009,07,22,10,36,15.60
2009,07,22,10,37,15.50
2009,07,22,10,38,15.50
2009,07,22,10,39,15.60
2009,07,22,10,40,15.70
2009,07,22,10,41,15.90
2009,07,22,10,42,15.90
2009,07,22,10,43,16.00
2009,07,22,10,44,16.10
2009,07,22,10,45,16.10
2009,07,22,10,46,16.10
2009,07,22,10,47,15.90
2009,07,22,10,48,15.80
2009,07,22,10,49,15.70
2009,07,22,10,50,15.70
2009,07,22,10,51,15.80
2009,07,22,10,52,15.90
2009,07,22,10,53,15.90
2009,07,22,10,54,16.10
2009,07,22,10,55,16.20
2009,07,22,10,56,16.30
2009,07,22,10,57,16.40
2009,07,22,10,58,16.40
2009,07,22,10,59,16.60
2009,07,22,11,00,16.70
2009,07,22,11,01,16.90
2009,07,22,11,02,16.90
2009,07,22,11,03,17.10
2009,07,22,11,04,17.30
2009,07,22,11,05,17.30
2009,07,22,11,06,17.30
2009,07,22,11,07,17.40
2009,07,22,11,08,17.50
2009,07,22,11,09,17.60
2009,07,22,11,10,17.70
2009,07,22,11,11,17.80
2009,07,22,11,12,17.90
2009,07,22,11,13,17.90
2009,07,22,11,14,17.90
2009,07,22,11,15,17.80
2009,07,22,11,16,17.60
2009,07,22,11,17,17.30
2009,07,22,11,18,17.20
2009,07,22,11,19,17.10
2009,07,22,11,20,17.20
2009,07,22,11,21,17.30
2009,07,22,11,22,17.50
2009,07,22,11,23,17.70
2009,07,22,11,24,17.80
2009,07,22,11,25,17.80
2009,07,22,11,26,17.80
2009,07,22,11,27,17.90
2009,07,22,11,28,18.00
2009,07,22,11,29,18.10
2009,07,22,11,30,18.20
2009,07,22,11,31,18.20
2009,07,22,11,32,18.20
2009,07,22,11,33,18.30
2009,07,22,11,34,18.30
2009,07,22,11,35,18.40
2009,07,22,11,36,18.30
2009,07,22,11,37,18.30
2009,07,22,11,38,18.30
2009,07,22,11,39,18.30
2009,07,22,11,40,18.20
2009,07,22,11,41,18.30
2009,07,22,11,42,18.30
2009,07,22,11,43,18.40
2009,07,22,11,44,18.50
2009,07,22,11,45,18.40
2009,07,22,11,46,18.40
2009,07,22,11,47,18.50
2009,07,22,11,48,18.40
2009,07,22,11,49,18.50
2009,07,22,11,50,18.40
2009,07,22,11,51,18.40
2009,07,22,11,52,18.40
2009,07,22,11,53,18.20
2009,07,22,11,54,18.20
2009,07,22,11,55,18.40
2009,07,22,11,56,18.50
2009,07,22,11,57,18.50
2009,07,22,11,58,18.40
2009,07,22,11,59,18.30
2009,07,22,12,00,18.20
2009,07,22,12,01,18.30
2009,07,22,12,02,18.50
2009,07,22,12,03,18.50
2009,07,22,12,04,18.50
2009,07,22,12,05,18.50
2009,07,22,12,06,18.50
2009,07,22,12,07,18.40
2009,07,22,12,08,18.40
2009,07,22,12,09,18.40
2009,07,22,12,10,18.40
2009,07,22,12,11,18.30
2009,07,22,12,12,18.30
2009,07,22,12,13,18.10
2009,07,22,12,14,18.00
2009,07,22,12,15,17.90
2009,07,22,12,16,18.00
2009,07,22,12,17,18.20
2009,07,22,12,18,18.20
2009,07,22,12,19,18.30
2009,07,22,12,20,18.30
2009,07,22,12,21,18.30
2009,07,22,12,22,18.20
2009,07,22,12,23,18.30
2009,07,22,12,24,18.30
2009,07,22,12,25,18.30
2009,07,22,12,26,18.40
2009,07,22,12,27,18.40
2009,07,22,12,28,18.50
2009,07,22,12,29,18.50
2009,07,22,12,30,18.50
2009,07,22,12,31,18.30
2009,07,22,12,32,18.30
2009,07,22,12,33,18.30
2009,07,22,12,34,18.30
2009,07,22,12,35,18.20
2009,07,22,12,36,18.20
2009,07,22,12,37,18.20
2009,07,22,12,38,18.30
2009,07,22,12,39,18.40
2009,07,22,12,40,18.50
2009,07,22,12,41,18.70
2009,07,22,12,42,18.70
2009,07,22,12,43,18.90
2009,07,22,12,44,19.00
2009,07,22,12,45,19.10
2009,07,22,12,46,18.90
2009,07,22,12,47,18.90
2009,07,22,12,48,18.90
2009,07,22,12,49,18.90
2009,07,22,12,50,19.00
2009,07,22,12,51,19.10
2009,07,22,12,52,19.10
2009,07,22,12,53,19.20
2009,07,22,12,54,19.30
2009,07,22,12,55,19.50
2009,07,22,12,56,19.60
2009,07,22,12,57,19.60
2009,07,22,12,58,19.60
2009,07,22,12,59,19.60
2009,07,22,13,00,19.60
2009,07,22,13,01,19.50
2009,07,22,13,02,19.50
2009,07,22,13,03,19.50
2009,07,22,13,04,19.40
2009,07,22,13,05,19.40
2009,07,22,13,06,19.50
2009,07,22,13,07,19.60
2009,07,22,13,08,19.70
2009,07,22,13,09,19.80
2009,07,22,13,10,19.90
2009,07,22,13,11,19.90
2009,07,22,13,12,19.90
2009,07,22,13,13,19.80
2009,07,22,13,14,19.80
2009,07,22,13,15,19.90
2009,07,22,13,16,19.90
2009,07,22,13,17,19.90
2009,07,22,13,18,19.90
2009,07,22,13,19,20.00
2009,07,22,13,20,20.10
2009,07,22,13,21,20.20
2009,07,22,13,22,20.20
2009,07,22,13,23,20.20
2009,07,22,13,24,20.20
2009,07,22,13,25,20.10
2009,07,22,13,26,20.00
2009,07,22,13,27,19.90
2009,07,22,13,28,19.90
2009,07,22,13,29,19.90
2009,07,22,13,30,19.90
2009,07,22,13,31,19.90
2009,07,22,13,32,20.10
2009,07,22,13,33,20.20
2009,07,22,13,34,20.40
2009,07,22,13,35,20.50
2009,07,22,13,36,20.60
2009,07,22,13,37,20.80
2009,07,22,13,38,20.80
2009,07,22,13,39,21.00
2009,07,22,13,40,21.10
2009,07,22,13,41,21.20
2009,07,22,13,42,21.30
2009,07,22,13,43,21.30
2009,07,22,13,44,21.30
2009,07,22,13,45,21.20
2009,07,22,13,46,21.30
2009,07,22,13,47,21.30
2009,07,22,13,48,21.20
2009,07,22,13,49,21.20
2009,07,22,13,50,21.20
2009,07,22,13,51,21.20
2009,07,22,13,52,21.20
2009,07,22,13,53,21.30
2009,07,22,13,54,21.20
2009,07,22,13,55,21.20
2009,07,22,13,56,21.20
2009,07,22,13,57,21.30
2009,07,22,13,58,21.40
2009,07,22,13,59,21.60
2009,07,22,14,00,21.70
2009,07,22,14,01,21.80
2009,07,22,14,02,21.80
2009,07,22,14,03,21.90
2009,07,22,14,04,21.90
2009,07,22,14,05,22.00
2009,07,22,14,06,22.00
2009,07,22,14,07,22.00
2009,07,22,14,08,22.00
2009,07,22,14,09,21.90
2009,07,22,14,10,21.80
2009,07,22,14,11,21.90
2009,07,22,14,12,21.80
2009,07,22,14,13,21.80
2009,07,22,14,14,21.80
2009,07,22,14,15,21.80
2009,07,22,14,16,21.60
2009,07,22,14,17,21.50
2009,07,22,14,18,21.40
2009,07,22,14,19,21.30
2009,07,22,14,20,21.50
2009,07,22,14,21,21.70
2009,07,22,14,22,21.60
2009,07,22,14,23,21.50
2009,07,22,14,24,21.40
2009,07,22,14,25,21.30
2009,07,22,14,26,21.20
2009,07,22,14,27,21.20
2009,07,22,14,28,21.20
2009,07,22,14,29,21.10
2009,07,22,14,30,20.90
2009,07,22,14,31,20.70
2009,07,22,14,32,20.40
2009,07,22,14,33,20.20
2009,07,22,14,34,20.10
2009,07,22,14,35,20.10
2009,07,22,14,36,20.10
2009,07,22,14,37,20.10
2009,07,22,14,38,20.10
2009,07,22,14,39,20.10
2009,07,22,14,40,20.10
2009,07,22,14,41,20.10
2009,07,22,14,42,19.90
2009,07,22,14,43,19.90
2009,07,22,14,44,19.90
2009,07,22,14,45,19.90
2009,07,22,14,46,19.80
2009,07,22,14,47,19.90
2009,07,22,14,48,19.90
2009,07,22,14,49,20.00
2009,07,22,14,50,20.20
2009,07,22,14,51,20.30
2009,07,22,14,52,20.50
2009,07,22,14,53,20.70
2009,07,22,14,54,20.90
2009,07,22,14,55,21.10
2009,07,22,14,56,21.20
2009,07,22,14,57,21.10
2009,07,22,14,58,21.00
2009,07,22,14,59,20.90
2009,07,22,15,00,20.80
2009,07,22,15,01,20.80
2009,07,22,15,02,20.70
2009,07,22,15,03,20.50
2009,07,22,15,04,20.30
2009,07,22,15,05,20.20
2009,07,22,15,06,20.20
2009,07,22,15,07,20.30
2009,07,22,15,08,20.40
2009,07,22,15,09,20.40
2009,07,22,15,10,20.40
2009,07,22,15,11,20.50
2009,07,22,15,12,20.60
2009,07,22,15,13,20.70
2009,07,22,15,14,20.70
2009,07,22,15,15,20.80
2009,07,22,15,16,20.90
2009,07,22,15,17,20.90
2009,07,22,15,18,20.90
2009,07,22,15,19,21.00
2009,07,22,15,20,21.10
2009,07,22,15,21,21.20
2009,07,22,15,22,21.30
2009,07,22,15,23,21.40
2009,07,22,15,24,21.50
2009,07,22,15,25,21.50
2009,07,22,15,26,21.40
2009,07,22,15,27,21.40
2009,07,22,15,28,21.30
2009,07,22,15,29,21.30
2009,07,22,15,30,21.10
2009,07,22,15,31,21.00
2009,07,22,15,32,20.80
2009,07,22,15,33,20.60
2009,07,22,15,34,20.60
2009,07,22,15,35,20.40
2009,07,22,15,36,20.30
2009,07,22,15,37,20.40
2009,07,22,15,38,20.30
2009,07,22,15,39,20.20
2009,07,22,15,40,20.00
2009,07,22,15,41,19.90
2009,07,22,15,42,20.00
2009,07,22,15,43,20.00
2009,07,22,15,44,19.90
2009,07,22,15,45,19.80
2009,07,22,15,46,19.80
2009,07,22,15,47,19.80
2009,07,22,15,48,19.80
2009,07,22,15,49,19.80
2009,07,22,15,50,19.80
2009,07,22,15,51,19.70
2009,07,22,15,52,19.60
2009,07,22,15,53,19.40
2009,07,22,15,54,19.20
2009,07,22,15,55,19.10
2009,07,22,15,56,19.20
2009,07,22,15,57,19.20
2009,07,22,15,58,19.10
2009,07,22,15,59,19.10
2009,07,22,16,00,19.30
2009,07,22,16,01,19.40
2009,07,22,16,02,19.30
2009,07,22,16,03,19.20
2009,07,22,16,04,19.10
2009,07,22,16,05,18.80
2009,07,22,16,06,18.70
2009,07,22,16,07,18.60
2009,07,22,16,08,18.60
2009,07,22,16,09,18.70
2009,07,22,16,10,18.90
2009,07,22,16,11,19.00
2009,07,22,16,12,19.10
2009,07,22,16,13,19.10
2009,07,22,16,14,19.20
2009,07,22,16,15,19.30
2009,07,22,16,16,19.40
2009,07,22,16,17,19.40
2009,07,22,16,18,19.30
2009,07,22,16,19,19.30
2009,07,22,16,20,19.30
2009,07,22,16,21,19.20
2009,07,22,16,22,19.40
2009,07,22,16,23,19.50
2009,07,22,16,24,19.60
2009,07,22,16,25,19.80
2009,07,22,16,26,20.00
2009,07,22,16,27,20.00
2009,07,22,16,28,19.90
2009,07,22,16,29,19.70
2009,07,22,16,30,19.50
2009,07,22,16,31,19.40
2009,07,22,16,32,19.40
2009,07,22,16,33,19.50
2009,07,22,16,34,19.60
2009,07,22,16,35,19.70
2009,07,22,16,36,19.70
2009,07,22,16,37,19.60
2009,07,22,16,38,19.60
2009,07,22,16,39,19.40
2009,07,22,16,40,19.20
2009,07,22,16,41,19.10
2009,07,22,16,42,19.00
2009,07,22,16,43,18.80
2009,07,22,16,44,18.80
2009,07,22,16,45,18.80
2009,07,22,16,46,18.70
2009,07,22,16,47,18.70
2009,07,22,16,48,18.60
2009,07,22,16,49,18.60
2009,07,22,16,50,18.60
2009,07,22,16,51,18.70
2009,07,22,16,52,18.80
2009,07,22,16,53,18.90
2009,07,22,16,54,18.90
2009,07,22,16,55,18.90
2009,07,22,16,56,18.80
2009,07,22,16,57,18.80
2009,07,22,16,58,18.80
2009,07,22,16,59,18.80
2009,07,22,17,00,18.80
2009,07,22,17,01,18.80
2009,07,22,17,02,18.70
2009,07,22,17,03,18.60
2009,07,22,17,04,18.60
2009,07,22,17,05,18.60
2009,07,22,17,06,18.40
2009,07,22,17,07,18.40
2009,07,22,17,08,18.30
2009,07,22,17,09,18.20
2009,07,22,17,10,18.10
2009,07,22,17,11,18.10
2009,07,22,17,12,18.10
2009,07,22,17,13,18.20
2009,07,22,17,14,18.20
2009,07,22,17,15,18.30
2009,07,22,17,16,18.50
2009,07,22,17,17,18.60
2009,07,22,17,18,18.70
2009,07,22,17,19,18.80